[[{"header":{"parameterUnit":"m.s-1","parameterCategory":1,"la1":30.2991,"la2":30.254,"lo1":-89.0895,"lo2":-89.0444,"dy":0.0017,"dx":0.0017,"nx":28,"ny":28,"refTime":"2023-08-30T03:00:00:Z","depth":0,"parameterNumber":2,"parameterNumberName":"U-component_of_WINDS"},"data":[0,0,0,0,0,0,0,0,0,0,0,0,0,0,0,0,0,0,0,0,0,0,0,0,0,0,0,0,0,0,0,0,0,0,0,0,0,0,0,0,0,0,0,0,0,0,0,0,0,0,0,0,0,0,0,0,0,0,0.2405,0.2406,0,0.2509,0.251,0.2511,0.2564,0.2564,0.2564,0.2564,0.2669,0.2671,0.2674,0,0,0,0,0,0,0,0,0,0,0,0,0,0.2253,0.2255,0.2405,0.2406,0.2408,0.2508,0.251,0.2511,0.2564,0.2564,0.2564,0.2564,0.2668,0.2671,0.2674,0,0,0,0,0,0,0,0,0,0,0,0,0,0.2334,0.2256,0.2405,0.2446,0.2451,0.2508,0.251,0.2512,0.2564,0.2564,0.2564,0.2564,0.2667,0.2671,0.2675,0.2699,0,0,0.2687,0.2689,0,0,0,0,0,0,0,0,0.2329,0.2339,0.2439,0.2443,0.2449,0.2523,0.2495,0.2574,0.2564,0.2521,0.2564,0.2564,0.262,0.2628,0.2647,0.2704,0.2708,0.2688,0.269,0.2692,0.2693,0,0,0,0,0,0,0,0.2323,0.2335,0.2446,0.244,0.2446,0.2459,0.2471,0.251,0.2569,0.2524,0.2528,0.254,0.2623,0.2643,0.265,0.271,0.2687,0.2691,0.2694,0.2695,0.2793,0.2793,0,0,0,0,0,0,0.2311,0.233,0.2443,0.2449,0.2388,0.2462,0.2475,0.2499,0.2568,0.2579,0.254,0.2542,0.2636,0.2645,0.2654,0.2688,0.2692,0.2696,0.2698,0.2793,0.2793,0.2793,0,0,0,0,0,0,0.2308,0.2321,0.2438,0.2391,0.2407,0.2464,0.2491,0.2501,0.2522,0.258,0.2591,0.255,0.2636,0.2648,0.2688,0.2692,0.2698,0.2701,0.2793,0.2793,0.2793,0.2755,0,0,0,0,0,0,0.2303,0.2319,0.2329,0.2391,0.2409,0.247,0.2492,0.2503,0.2529,0.2533,0.2592,0.2602,0.2637,0.2681,0.2692,0.2698,0.2705,0.2792,0.2793,0.2793,0.2756,0.2754,0.2752,0,0,0,0,0,0.2298,0.2313,0.2329,0.2342,0.2422,0.247,0.2481,0.2521,0.2529,0.2539,0.2577,0.26,0.269,0.2685,0.2697,0.2705,0.2792,0.2793,0.2793,0.2757,0.2754,0.2752,0,0,0,0,0,0,0.225,0.2322,0.234,0.2377,0.2417,0.2479,0.2493,0.2517,0.2556,0.2558,0.2606,0.2619,0.2654,0.2684,0.2676,0.2733,0.2744,0.2746,0.2712,0.271,0.2708,0.27,0.2708,0,0,0,0,0,0.2243,0.2277,0.2338,0.2364,0.2384,0.2435,0.2457,0.2485,0.2529,0.2546,0.2587,0.2628,0.2666,0.269,0.2727,0.2761,0.2775,0.2772,0.277,0.2768,0.277,0.2791,0.2791,0.2794,0.2794,0.2794,0,0,0.2231,0.2274,0.2292,0.2356,0.239,0.2424,0.2449,0.2483,0.2508,0.2551,0.2591,0.2623,0.2672,0.2709,0.2727,0.2734,0.2772,0.2768,0.2766,0.2769,0.2791,0.2791,0.2791,0.2794,0.2794,0.2794,0,0,0.2225,0.2261,0.2287,0.2322,0.2374,0.2409,0.2415,0.2474,0.2497,0.2538,0.2571,0.2602,0.2666,0.27,0.2726,0.2735,0.2758,0.2746,0.2735,0.2755,0.2755,0.2755,0.2759,0.276,0.2747,0.2747,0.2747,0,0.2202,0.2254,0.2297,0.233,0.2357,0.2399,0.2426,0.2458,0.2519,0.2537,0.2545,0.2627,0.2663,0.2709,0.2711,0.273,0.274,0.2739,0.2751,0.2752,0.2752,0.2757,0.2758,0.2745,0.2746,0.2746,0.2746,0,0.2224,0.2259,0.2274,0.2334,0.2363,0.2393,0.2441,0.2466,0.2491,0.2525,0.2567,0.2612,0.2661,0.2674,0.2699,0.2724,0.2727,0.2742,0.2754,0.275,0.2755,0.2757,0.2743,0.2744,0.2744,0.2745,0,0,0.2189,0.2274,0.2279,0.2307,0.2369,0.2397,0.243,0.2478,0.2498,0.254,0.2568,0.2622,0.2637,0.2666,0.2696,0.2713,0.2719,0.2727,0.2728,0.2724,0.2751,0.2739,0.274,0.2735,0.2735,0.2736,0.2747,0,0.2192,0.2252,0.2293,0.2337,0.2371,0.2412,0.244,0.2481,0.2514,0.2547,0.2584,0.2621,0.2638,0.2656,0.2675,0.2714,0.2725,0.2714,0.2762,0.2763,0.2749,0.2743,0.2731,0.2739,0.2749,0.2749,0.275,0,0.2203,0.2245,0.2292,0.2352,0.2368,0.2392,0.2441,0.2472,0.252,0.2543,0.2576,0.2607,0.2643,0.2652,0.2704,0.2695,0.2718,0.274,0.2741,0.2747,0.2756,0.275,0.2743,0.2744,0.2753,0.2753,0.2753,0,0.2174,0.2242,0.228,0.2303,0.2373,0.239,0.242,0.2468,0.2494,0.2537,0.2555,0.26,0.2625,0.266,0.2702,0.2705,0.275,0.2762,0.277,0.2769,0.2777,0.2776,0.2774,0.2791,0.2791,0.2791,0.2791,0,0.2174,0.2201,0.2268,0.2291,0.2323,0.2371,0.2402,0.2435,0.2478,0.2509,0.2546,0.2574,0.2628,0.2663,0.2697,0.2735,0.2745,0.2765,0.2774,0.2762,0.2759,0.2777,0.2778,0.2791,0.2791,0.2791,0.2791,0,0.2146,0.2192,0.2236,0.23,0.2316,0.2337,0.2392,0.2416,0.2452,0.249,0.2502,0.2557,0.26,0.2646,0.2704,0.2727,0.2764,0.2776,0.2748,0.2753,0.2758,0.2757,0.2768,0.2772,0.2785,0.2785,0.2785,0,0.2143,0.2165,0.2232,0.2255,0.2285,0.2322,0.235,0.2398,0.2425,0.2483,0.25,0.2547,0.2586,0.2653,0.2699,0.2744,0.2757,0.2758,0.2764,0.2752,0.2758,0.2757,0.276,0.2756,0.2755,0.2755,0.2755,0,0.2132,0.2154,0.2193,0.2241,0.2273,0.2313,0.2354,0.2371,0.2427,0.2456,0.2501,0.2532,0.2592,0.2638,0.2689,0.272,0.2747,0.2753,0.2757,0.2746,0.2729,0.2739,0.2743,0.2752,0.2752,0.2753,0.2753,0.2753,0.2117,0.2139,0.219,0.2233,0.2269,0.2307,0.2333,0.2373,0.2411,0.2465,0.2491,0.2536,0.2585,0.2657,0.2687,0.2724,0.2732,0.2738,0.2739,0.274,0.2738,0.2723,0.2733,0.2733,0.2733,0.2734,0.2734,0,0.2109,0.2144,0.2183,0.224,0.2274,0.2297,0.2344,0.237,0.241,0.2454,0.2492,0.2545,0.259,0.2639,0.2688,0.2707,0.2721,0.2718,0.2718,0.2725,0.2727,0.2719,0.2707,0.2707,0.2707,0.2707,0.2707,0.2707,0.2108,0.2148,0.2176,0.2235,0.227,0.2315,0.234,0.2375,0.2411,0.2468,0.2506,0.2538,0.2585,0.2637,0.268,0.2693,0.2709,0.2703,0.272,0.2722,0.2724,0.2726,0.2719,0.2706,0.2706,0.2715,0.2715,0.2715]},{"header":{"parameterUnit":"m.s-1","parameterCategory":1,"la1":30.2991,"la2":30.254,"lo1":-89.0895,"lo2":-89.0444,"dy":0.0017,"dx":0.0017,"nx":28,"ny":28,"refTime":"2023-08-30T03:00:00:Z","depth":0,"parameterNumber":3,"parameterNumberName":"V-component_of_WINDS"},"data":[0,0,0,0,0,0,0,0,0,0,0,0,0,0,0,0,0,0,0,0,0,0,0,0,0,0,0,0,0,0,0,0,0,0,0,0,0,0,0,0,0,0,0,0,0,0,0,0,0,0,0,0,0,0,0,0,0,0,-4.2913,-4.2913,0,-4.2922,-4.2922,-4.2922,-4.2911,-4.2911,-4.291,-4.291,-4.2917,-4.2918,-4.2918,0,0,0,0,0,0,0,0,0,0,0,0,0,-4.2885,-4.2886,-4.2913,-4.2913,-4.2913,-4.2922,-4.2922,-4.2922,-4.2911,-4.2911,-4.291,-4.291,-4.2917,-4.2918,-4.2918,0,0,0,0,0,0,0,0,0,0,0,0,0,-4.2896,-4.2886,-4.2913,-4.2909,-4.2909,-4.2922,-4.2922,-4.2922,-4.2911,-4.2911,-4.291,-4.291,-4.2917,-4.2918,-4.2919,-4.2935,0,0,-4.2921,-4.2921,0,0,0,0,0,0,0,0,-4.2895,-4.2897,-4.2909,-4.2909,-4.2909,-4.2915,-4.2915,-4.2926,-4.2911,-4.291,-4.291,-4.2909,-4.2917,-4.2918,-4.292,-4.2936,-4.2936,-4.2921,-4.2922,-4.2922,-4.2922,0,0,0,0,0,0,0,-4.2895,-4.2897,-4.2916,-4.291,-4.2909,-4.2906,-4.2907,-4.2917,-4.2917,-4.291,-4.291,-4.2911,-4.2917,-4.292,-4.2921,-4.2936,-4.2921,-4.2922,-4.2922,-4.2923,-4.2964,-4.2965,0,0,0,0,0,0,-4.2895,-4.2896,-4.2916,-4.2917,-4.2901,-4.2907,-4.2908,-4.2913,-4.2917,-4.2916,-4.2911,-4.291,-4.2919,-4.292,-4.2921,-4.294,-4.2922,-4.2923,-4.2923,-4.2964,-4.2965,-4.2965,0,0,0,0,0,0,-4.2894,-4.2897,-4.2916,-4.2906,-4.2908,-4.2908,-4.2914,-4.2914,-4.2917,-4.2917,-4.2917,-4.2915,-4.2918,-4.292,-4.2932,-4.294,-4.2923,-4.2924,-4.2963,-4.2964,-4.2965,-4.2978,0,0,0,0,0,0,-4.2893,-4.2897,-4.2903,-4.2906,-4.2909,-4.2927,-4.2915,-4.2915,-4.2919,-4.2917,-4.292,-4.292,-4.2918,-4.293,-4.2932,-4.2941,-4.2925,-4.2962,-4.2964,-4.2965,-4.2977,-4.2979,-4.2981,0,0,0,0,0,-4.2892,-4.2907,-4.2904,-4.2906,-4.2918,-4.2928,-4.2929,-4.2926,-4.2919,-4.2926,-4.2926,-4.292,-4.2939,-4.2932,-4.2934,-4.2942,-4.2962,-4.2963,-4.2965,-4.2976,-4.2979,-4.2981,0,0,0,0,0,0,-4.2904,-4.2907,-4.2904,-4.292,-4.2923,-4.2926,-4.2934,-4.293,-4.2935,-4.2934,-4.293,-4.293,-4.2943,-4.2944,-4.2936,-4.2958,-4.2949,-4.2951,-4.2957,-4.296,-4.2962,-4.2961,-4.2925,0,0,0,0,0,-4.2909,-4.2917,-4.2919,-4.2933,-4.2935,-4.2934,-4.2938,-4.2936,-4.294,-4.2941,-4.2942,-4.2945,-4.2952,-4.2956,-4.2962,-4.2977,-4.2977,-4.2984,-4.2987,-4.2988,-4.299,-4.2997,-4.2999,-4.297,-4.297,-4.297,0,0,-4.2918,-4.292,-4.2926,-4.2935,-4.2938,-4.2946,-4.2935,-4.2945,-4.295,-4.2942,-4.2953,-4.2954,-4.2958,-4.2971,-4.2977,-4.2972,-4.2998,-4.299,-4.2992,-4.2992,-4.2998,-4.3001,-4.3003,-4.2971,-4.297,-4.297,0,0,-4.2938,-4.2942,-4.2953,-4.2956,-4.296,-4.2959,-4.2962,-4.2965,-4.2965,-4.2977,-4.2971,-4.2977,-4.2989,-4.2991,-4.2994,-4.3015,-4.3009,-4.3017,-4.3028,-4.3035,-4.3037,-4.3039,-4.3046,-4.3048,-4.3019,-4.3019,-4.3019,0,-4.2948,-4.2961,-4.2959,-4.2968,-4.2972,-4.2966,-4.2976,-4.2979,-4.2985,-4.2987,-4.2982,-4.2996,-4.2998,-4.3011,-4.3017,-4.302,-4.3022,-4.3016,-4.3037,-4.3039,-4.3041,-4.3047,-4.3049,-4.3019,-4.3019,-4.3019,-4.3019,0,-4.2973,-4.2981,-4.299,-4.2996,-4.3001,-4.3011,-4.3009,-4.3014,-4.3012,-4.3011,-4.3022,-4.3025,-4.3031,-4.3034,-4.3031,-4.3047,-4.3043,-4.3038,-4.3028,-4.3045,-4.305,-4.3052,-4.3021,-4.302,-4.302,-4.302,0,0,-4.3,-4.3005,-4.3007,-4.301,-4.3014,-4.302,-4.303,-4.3036,-4.304,-4.3044,-4.3051,-4.3061,-4.3056,-4.3059,-4.3057,-4.3063,-4.3078,-4.3057,-4.3057,-4.3059,-4.3093,-4.3096,-4.3099,-4.3075,-4.3075,-4.3076,-4.3093,0,-4.3019,-4.3035,-4.3034,-4.3049,-4.3056,-4.305,-4.3059,-4.3062,-4.3062,-4.3067,-4.3067,-4.3074,-4.3068,-4.3069,-4.3075,-4.3075,-4.3084,-4.3074,-4.308,-4.308,-4.3078,-4.3102,-4.3105,-4.3121,-4.3095,-4.3095,-4.3096,0,-4.3043,-4.3048,-4.3065,-4.3067,-4.307,-4.3077,-4.3082,-4.3088,-4.3092,-4.3091,-4.3095,-4.3091,-4.31,-4.3091,-4.3102,-4.3095,-4.3098,-4.3098,-4.3099,-4.3098,-4.3088,-4.3101,-4.3126,-4.3128,-4.3099,-4.3099,-4.3099,0,-4.3059,-4.3071,-4.3081,-4.3084,-4.3087,-4.3092,-4.3094,-4.3097,-4.31,-4.3105,-4.3107,-4.3113,-4.3115,-4.3119,-4.3117,-4.3111,-4.3128,-4.312,-4.3127,-4.3127,-4.313,-4.3129,-4.3155,-4.3134,-4.3134,-4.3134,-4.3134,0,-4.308,-4.3089,-4.3088,-4.3095,-4.3105,-4.3103,-4.3114,-4.3115,-4.3117,-4.3123,-4.3119,-4.3125,-4.3122,-4.3127,-4.3126,-4.3135,-4.3136,-4.3135,-4.3135,-4.3135,-4.3135,-4.3136,-4.3134,-4.3134,-4.3134,-4.3134,-4.3134,0,-4.3099,-4.3099,-4.311,-4.3113,-4.3114,-4.3121,-4.3123,-4.3129,-4.3129,-4.3136,-4.3138,-4.3138,-4.3144,-4.3142,-4.3149,-4.3148,-4.3159,-4.3157,-4.3158,-4.3157,-4.3164,-4.3163,-4.3189,-4.3192,-4.3171,-4.3171,-4.3171,0,-4.3111,-4.3118,-4.3122,-4.3126,-4.3128,-4.3134,-4.3138,-4.3136,-4.314,-4.3144,-4.3149,-4.3155,-4.316,-4.3169,-4.3169,-4.3174,-4.3172,-4.3181,-4.3173,-4.3172,-4.317,-4.317,-4.317,-4.3182,-4.3183,-4.3183,-4.3183,0,-4.3132,-4.3132,-4.3138,-4.3143,-4.3148,-4.3152,-4.3156,-4.3159,-4.3158,-4.3162,-4.3169,-4.3172,-4.3179,-4.3184,-4.3189,-4.319,-4.3186,-4.3186,-4.3188,-4.3187,-4.3187,-4.3186,-4.3161,-4.3185,-4.3185,-4.3185,-4.3184,-4.3184,-4.3148,-4.3153,-4.3157,-4.3163,-4.3166,-4.3169,-4.3175,-4.3175,-4.3181,-4.3186,-4.3185,-4.3192,-4.3194,-4.32,-4.3202,-4.3207,-4.3203,-4.3206,-4.3206,-4.3207,-4.3207,-4.3187,-4.3208,-4.3208,-4.3208,-4.3208,-4.3207,0,-4.3167,-4.3169,-4.3175,-4.3181,-4.3185,-4.3182,-4.3186,-4.319,-4.3196,-4.3199,-4.3204,-4.3211,-4.3216,-4.3217,-4.3221,-4.3225,-4.3223,-4.3226,-4.3225,-4.3225,-4.3211,-4.3208,-4.3228,-4.3228,-4.3228,-4.3228,-4.3228,-4.3228,-4.3178,-4.3188,-4.3188,-4.3198,-4.32,-4.3207,-4.3209,-4.3212,-4.3215,-4.3222,-4.3227,-4.3228,-4.3229,-4.3234,-4.3239,-4.3239,-4.324,-4.3243,-4.3243,-4.3229,-4.3226,-4.3225,-4.3222,-4.3244,-4.3244,-4.3257,-4.3257,-4.3257]}]]